Погода в Исулане

Филиппины     6°37′33″N   124°35′54″E
темп.,
°C
ветер,
м/с
пор.,
м/с
влажн.,
%
обл.,
%
осадки,
мм/ч
давл.,
гПа
погр.,
м
9 марта, вт
вт923:00+23ююв018373 0.1 101223
02:00+22юз018676 0.1 101123
05:00+22зсз1191100 0.0 101123
08:00+25ссз227693 0.0 1012314
11:00+29св225775 0.0 10111053
14:00+32в124988 0.0 10091191
17:00+28в2366100 0.1 100979
20:00+24с1183100 1.6 101224
10 марта, ср
ср1023:00+23сз1282100 0.1 101324
02:00+22зсз2286100 0.1 101138
05:00+22зсз1185100 0.0 101127
08:00+25ссз237694 0.0 1013374
11:00+29с236179 0.0 1012972
14:00+32св125283 0.2 10091398
17:00+28сз247892 1.4 1009150
20:00+24юз118895 3.8 101124
11 марта, чт
чт1123:00+23ююз118996 0.5 101223
02:00+23ююз119169 0.5 101023
05:00+22з119171 0.0 101023
08:00+26ссв118171 0.1 1012332
11:00+26с2381100 1.4 1012388
14:00+25с1283100 2.6 1009273
17:00+25св1183100 0.2 1009205
20:00+23ююз1290100 0.3 101125
12 марта, пт
пт1223:00+22ю0190100 0.0 101223
02:00+22юз118996 0.0 100923
05:00+21сз019249 0.0 100923
08:00+25св117749 0.0 1012359
11:00+30всв22602 0.1 10111066
14:00+30зюз116612 6.1 1008840
17:00+26зюз228594 7.0 100955
20:00+24з128897 8.3 101128
13 марта, сб
сб1323:00+23вюв1194100 0.1 101126
02:00+23ю1293100 0.1 100928
05:00+22ссз0194100 0.0 101023
08:00+25вюв1184100 0.0 1011296
11:00+30всв2264100 0.0 10101056
14:00+30ссз1166100 3.1 1008700
17:00+28з2278100 2.8 100873
20:00+24ю1289100 3.1 101032